TimeEST,TemperatureF,Dew PointF,Humidity,Sea Level PressureIn,VisibilityMPH,Wind Direction,Wind SpeedMPH,Gust SpeedMPH,PrecipitationIn,Events,Conditions,WindDirDegrees,DateUTC
12:13 AM,30.7,29.3,94,30.10,4.0,Calm,Calm,-,N/A,,Scattered Clouds,0,2012-12-20 05:13:00
12:32 AM,30.4,29.3,96,30.08,4.0,SE,4.6,-,N/A,,Scattered Clouds,140,2012-12-20 05:32:00
12:53 AM,31.1,29.8,95,30.06,4.0,SE,3.5,-,N/A,,Clear,130,2012-12-20 05:53:00
1:13 AM,31.8,30.2,94,30.05,4.0,SE,3.5,-,N/A,,Mostly Cloudy,130,2012-12-20 06:13:00
1:53 AM,32.0,30.9,96,30.03,4.0,East,4.6,-,N/A,,Overcast,90,2012-12-20 06:53:00
2:13 AM,32.9,31.1,93,30.02,5.0,ESE,5.8,-,N/A,,Overcast,110,2012-12-20 07:13:00
2:33 AM,32.9,31.3,94,30.01,5.0,ESE,4.6,-,N/A,,Overcast,110,2012-12-20 07:33:00
2:53 AM,32.9,31.5,94,30.00,5.0,East,5.8,-,N/A,,Overcast,100,2012-12-20 07:53:00
3:13 AM,32.9,31.6,95,30.00,4.0,ESE,3.5,-,N/A,,Overcast,120,2012-12-20 08:13:00
3:33 AM,33.3,31.6,94,30.00,5.0,SE,5.8,-,N/A,,Overcast,130,2012-12-20 08:33:00
3:53 AM,33.3,31.6,94,30.00,4.0,SE,4.6,-,N/A,Snow,Light Snow,130,2012-12-20 08:53:00
4:13 AM,33.1,31.8,95,29.98,4.0,ESE,6.9,-,N/A,Snow,Light Snow,120,2012-12-20 09:13:00
4:33 AM,32.9,32.0,96,29.94,2.5,East,8.1,-,0.01,Snow,Light Snow,100,2012-12-20 09:33:00
4:53 AM,33.6,32.0,94,29.92,3.0,ESE,8.1,-,0.01,Snow,Light Snow,110,2012-12-20 09:53:00
5:13 AM,33.8,32.2,94,29.90,4.0,East,9.2,-,N/A,,Overcast,100,2012-12-20 10:13:00
5:33 AM,34.2,32.4,93,29.87,4.0,East,9.2,-,N/A,,Overcast,90,2012-12-20 10:33:00
5:53 AM,34.9,32.7,92,29.90,5.0,East,5.8,-,N/A,,Overcast,100,2012-12-20 10:53:00
6:13 AM,35.1,32.9,92,29.90,5.0,East,6.9,-,N/A,,Overcast,80,2012-12-20 11:13:00
6:33 AM,35.2,33.1,92,29.89,5.0,East,4.6,-,N/A,,Overcast,100,2012-12-20 11:33:00
6:53 AM,35.6,33.3,91,29.89,5.0,ESE,6.9,-,N/A,,Overcast,110,2012-12-20 11:53:00
7:13 AM,35.6,33.4,92,29.88,5.0,East,6.9,-,N/A,,Overcast,100,2012-12-20 12:13:00
7:33 AM,35.6,33.4,92,29.84,5.0,East,8.1,-,N/A,,Overcast,90,2012-12-20 12:33:00
7:53 AM,36.0,33.8,92,29.82,5.0,East,10.4,16.1,N/A,,Overcast,90,2012-12-20 12:53:00
8:12 AM,36.0,33.6,91,29.78,5.0,East,12.7,20.7,N/A,,Overcast,80,2012-12-20 13:12:00
8:33 AM,35.8,33.4,91,29.74,5.0,East,9.2,19.6,N/A,Rain,Light Rain,80,2012-12-20 13:33:00
8:53 AM,35.8,33.4,91,29.75,5.0,East,12.7,17.3,N/A,,Overcast,90,2012-12-20 13:53:00
9:12 AM,36.0,33.1,89,29.73,7.0,East,10.4,20.7,N/A,,Overcast,100,2012-12-20 14:12:00
9:33 AM,36.0,33.1,89,29.71,7.0,East,9.2,23.0,N/A,,Overcast,90,2012-12-20 14:33:00
9:53 AM,36.1,33.1,89,29.67,7.0,East,12.7,21.9,N/A,,Overcast,90,2012-12-20 14:53:00
10:12 AM,36.9,32.9,86,29.66,7.0,East,12.7,23.0,N/A,,Mostly Cloudy,100,2012-12-20 15:12:00
10:33 AM,37.4,33.1,84,29.64,10.0,East,12.7,23.0,N/A,,Mostly Cloudy,100,2012-12-20 15:33:00
10:53 AM,37.9,33.3,83,29.63,10.0,East,18.4,26.5,N/A,,Mostly Cloudy,100,2012-12-20 15:53:00
11:12 AM,38.1,32.9,81,29.61,10.0,ESE,15.0,25.3,N/A,,Overcast,110,2012-12-20 16:12:00
11:33 AM,37.9,33.4,84,29.60,10.0,ESE,16.1,25.3,N/A,,Light Drizzle,110,2012-12-20 16:33:00
11:53 AM,38.3,33.6,83,29.59,10.0,ESE,12.7,20.7,N/A,,Light Drizzle,110,2012-12-20 16:53:00
12:12 PM,38.8,33.3,80,29.57,10.0,ESE,13.8,20.7,N/A,Rain,Light Rain,120,2012-12-20 17:12:00
12:33 PM,38.3,34.0,84,29.55,4.0,ESE,11.5,18.4,0.03,Rain,Rain,120,2012-12-20 17:33:00
12:53 PM,37.8,35.1,90,29.52,5.0,ESE,9.2,-,0.05,Rain,Light Rain,110,2012-12-20 17:53:00
1:12 PM,37.9,35.6,91,29.50,4.0,ESE,12.7,19.6,0.02,Rain,Rain,110,2012-12-20 18:12:00
1:33 PM,38.1,35.8,91,29.47,4.0,ESE,13.8,24.2,0.06,Rain,Rain,120,2012-12-20 18:33:00
1:53 PM,37.9,36.0,93,29.43,4.0,ESE,15.0,25.3,0.09,Rain,Light Rain,110,2012-12-20 18:53:00
2:12 PM,38.3,36.0,91,29.41,5.0,ESE,21.9,31.1,0.01,Rain,Light Rain,120,2012-12-20 19:12:00
2:33 PM,38.3,36.5,93,29.37,5.0,ESE,20.7,28.8,0.02,Rain,Light Rain,120,2012-12-20 19:33:00
2:53 PM,38.7,36.7,93,29.31,5.0,East,16.1,34.5,0.03,Rain,Light Rain,100,2012-12-20 19:53:00
3:13 PM,39.2,37.2,93,29.23,7.0,East,21.9,43.7,N/A,,Overcast,100,2012-12-20 20:13:00
3:33 PM,40.1,37.8,91,29.30,10.0,SE,13.8,31.1,N/A,,Overcast,130,2012-12-20 20:33:00
3:53 PM,40.5,38.3,92,29.29,10.0,ESE,18.4,26.5,N/A,,Overcast,120,2012-12-20 20:53:00
4:13 PM,41.0,38.5,91,29.29,10.0,SE,19.6,27.6,N/A,,Overcast,130,2012-12-20 21:13:00
4:33 PM,41.0,38.7,91,29.28,10.0,SE,15.0,29.9,N/A,,Overcast,140,2012-12-20 21:33:00
4:53 PM,41.5,39.4,92,29.28,5.0,SE,20.7,28.8,0.02,Rain,Rain,140,2012-12-20 21:53:00
5:13 PM,41.7,39.4,91,29.25,7.0,ESE,16.1,23.0,0.02,Rain,Light Rain,120,2012-12-20 22:13:00
5:33 PM,41.7,39.6,92,29.23,7.0,ESE,15.0,27.6,0.04,Rain,Rain,120,2012-12-20 22:33:00
5:53 PM,41.9,39.7,92,29.22,7.0,ESE,13.8,21.9,0.07,Rain,Light Rain,120,2012-12-20 22:53:00
6:13 PM,42.1,40.1,93,29.21,7.0,ESE,12.7,24.2,0.04,Rain,Rain,120,2012-12-20 23:13:00
6:33 PM,42.4,40.5,93,29.20,5.0,ESE,13.8,20.7,0.08,Rain,Light Rain,120,2012-12-20 23:33:00
6:53 PM,42.8,40.6,92,29.18,7.0,SE,10.4,24.2,0.08,Rain,Light Rain,130,2012-12-20 23:53:00
7:12 PM,43.2,41.2,93,29.17,10.0,SE,15.0,25.3,N/A,Rain,Light Rain,130,2012-12-21 00:12:00
7:33 PM,43.0,41.2,93,29.16,7.0,ESE,11.5,23.0,0.01,Rain,Rain,120,2012-12-21 00:33:00
7:53 PM,43.0,41.4,94,29.15,5.0,SE,10.4,16.1,0.01,Rain,Rain,130,2012-12-21 00:53:00
8:13 PM,43.3,41.9,95,29.15,7.0,SSE,6.9,-,0.01,Rain,Light Rain,150,2012-12-21 01:13:00
8:33 PM,44.6,41.7,90,29.15,10.0,South,12.7,-,0.01,Rain,Light Rain,190,2012-12-21 01:33:00
8:52 PM,44.6,41.2,88,29.15,10.0,SW,12.7,20.7,0.01,Rain,Rain,220,2012-12-21 01:52:00
9:13 PM,43.9,40.3,87,29.15,10.0,SW,9.2,16.1,N/A,,Overcast,220,2012-12-21 02:13:00
9:33 PM,43.3,40.1,88,29.17,10.0,SW,9.2,-,N/A,Rain,Light Rain,220,2012-12-21 02:33:00
9:52 PM,42.8,39.7,89,29.17,10.0,SSW,10.4,16.1,N/A,,Drizzle,210,2012-12-21 02:52:00
10:13 PM,42.1,38.7,88,29.17,10.0,SW,8.1,-,N/A,Rain,Light Rain,220,2012-12-21 03:13:00
10:33 PM,41.9,38.3,87,29.17,10.0,SSW,15.0,-,N/A,Rain,Light Rain,210,2012-12-21 03:33:00
10:52 PM,40.5,36.3,85,29.18,7.0,SW,18.4,28.8,N/A,,Heavy Drizzle,220,2012-12-21 03:52:00
11:13 PM,37.9,34.5,87,29.19,10.0,SSW,10.4,17.3,N/A,Rain,Light Rain,210,2012-12-21 04:13:00
11:33 PM,37.4,34.5,89,29.18,10.0,South,5.8,-,N/A,,Overcast,190,2012-12-21 04:33:00
11:52 PM,37.4,34.3,89,29.17,10.0,South,8.1,-,N/A,,Drizzle,190,2012-12-21 04:52:00